Location: ???????
(55.4362°N, 38.1183°E)
Time: 17:59:46
(UTC+00:00)

Resurs 1-4 Rocket - Pass Details

Date: 17 June 2021
Orbit: 800 x 813 km, 98.6° (Epoch: 29 July)

Event Time Altitude Azimuth Distance (km) Brightness Sun altitude
Rises 22:39:02 0° 19° (NNE) 3,344 7.7 -9.7°
Reaches altitude 10° 22:41:30 10° 26° (NNE) 2,410 6.2 -9.6°
Maximum altitude 22:46:36 44° 98° (E) 1,109 2.9 -9.4°
Drops below altitude 10° 22:51:40 10° 171° (S) 2,399 4.0 -9.2°
Enters shadow 22:52:06 - 172° (S) 2,558 4.2 -9.2°
